Погода в Николаевке

Россия / Кемеровская область (Кузбасс)     55°52′49″N   87°15′34″E
темп.,
°C
ветер,
м/с
пор.,
м/с
влажн.,
%
обл.,
%
осадки,
мм/ч
давл.,
гПа
погр.,
м
17 сентября, пт
пт1701:00+11ю238291 0.2 100856
04:00+10ю388698 0.0 1008124
07:00+10ю3118479 0.0 1007189
10:00+16ююз5126562 0.0 1006414
13:00+19ю51047100 0.0 1005803
16:00+19ю5115096 0.0 1003964
19:00+17ю51554100 0.0 1002663
22:00+17ю61744100 0.0 1000577
18 сентября, сб
сб1801:00+18ю71838100 0.0 997705
04:00+17ю61642100 0.0 995714
07:00+13зюз71176100 0.4 997963
10:00+10зюз5108771 1.1 1004940
13:00+13зюз61060100 1.5 10061725
16:00+12юз51161100 0.1 10081704
19:00+11юз4957100 0.1 1009949
22:00+8зсз127099 0.0 101072
19 сентября, вс
вс1901:00+8ююз2667100 0.0 1010324
04:00+6юз3870100 0.0 1010347
07:00+6ююз3973100 0.0 1009349
10:00+9ююз4857100 0.0 1008860
13:00+11юз4750100 0.0 10071271
16:00+12ю4952100 0.0 10041450
19:00+9з61078100 0.2 1004719
22:00+7юз41093100 3.2 1005376
20 сентября, пн
пн2001:00+5зюз389781 3.6 1005264
04:00+5зюз3893100 0.1 1006313
07:00+5юз3993100 0.1 1007585
10:00+7юз5117626 0.2 10081341
13:00+8зюз71156100 0.4 10091759
16:00+7зюз71165100 0.3 10101547
19:00+5юз5107499 0.4 10111026
22:00+2юз4993100 0.6 1012638
21 сентября, вт
вт2101:00+2зюз4991100 0.6 1012779
04:00+1зюз4991100 0.1 1013795
07:00+1зюз51090100 0.2 1015745
10:00+1зюз51297100 1.2 1017717
13:00+3з5995100 1.8 1019890
16:00+2з41097100 0.5 1021508
19:00+2з379399 0.8 1023524
22:00+1зюз3794100 0.4 1024395